RH
14 12 13 13 13 13 14 15 17 17 15 20 26 25 22 45 46 46 49 47 46 46 42 44 48 49 52 59 67 69 74 78 76 73 72 72 72 75 76 86 87 79 72 72
13 12 13 13 13 13 14 16 15 13 14 20 22 20 18 36 44 42 46 44 45 42 45 49 48 49 52 60 66 71 74 83 82 69 69 68 80 67 89 75 88 80 74 72
14 12 14 14 14 14 14 13 14 13 12 16 18 19 25 24 40 44 40 38 37 41 42 47 49 48 52 60 66 69 74 80 84 78 70 75 73 71 69 71 70 85 74 70
14 13 14 12 13 13 10 11 12 14 16 14 17 19 27 37 27 36 40 41 38 40 41 42 45 47 50 55 58 65 72 75 75 81 74 79 66 66 73 76 76 65 73 71
15 14 14 14 12 12 10 11 16 17 19 18 18 16 22 42 33 36 35 34 32 36 39 40 42 44 45 52 57 61 72 77 74 78 76 72 74 62 59 60 72 78 81 73
14 13 12 12 11 10 13 12 18 25 18 17 26 21 23 44 51 48 47 46 35 33 36 40 42 46 48 51 55 58 73 78 77 79 78 81 76 73 67 68 65 61 60 59
15 14 13 11 12 12 12 12 17 21 22 24 27 30 35 47 48 55 56 50 40 39 39 45 50 48 51 54 56 58 69 76 76 76 76 77 77 77 76 85 63 73 75 81
17 16 15 12 10 11 12 10 15 27 23 24 33 32 35 44 52 54 50 51 48 44 44 48 49 59 54 55 56 58 65 72 75 77 80 80 80 78 79 78 70 63 59 57
19 20 15 15 10 11 16 16 13 19 25 25 35 41 38 47 53 52 52 54 56 55 56 56 52 52 54 53 55 58 65 70 75 71 82 89 87 90 93 90 81 66 68 60
16 22 15 13 11 12 13 15 16 20 33 35 36 44 38 52 58 56 56 60 63 60 56 58 58 59 59 57 53 57 60 68 69 72 78 85 84 86 85 85 88 82 74 73
15 18 17 13 15 15 12 12 23 20 25 27 33 29 33 50 55 61 63 61 61 58 59 58 63 68 65 62 64 65 68 71 74 76 80 82 78 69 69 76 86 88 84 82
18 15 21 16 14 14 12 16 17 18 30 31 27 27 47 42 49 60 66 58 59 59 58 56 58 63 65 72 76 77 74 74 74 77 73 64 67 72 69 74 83 88 92 96
18 20 22 16 13 15 17 16 20 19 20 36 25 24 55 58 62 62 63 61 60 57 56 51 48 57 61 61 67 74 74 67 60 58 56 62 65 69 72 75 78 83 83 86
39 16 18 16 18 19 19 18 17 14 16 19 21 37 66 63 63 64 62 60 58 57 55 47 48 55 57 62 68 66 67 70 71 67 60 64 63 62 67 71 74 76 80 82
15 21 22 19 18 20 20 19 22 22 18 18 17 26 48 59 60 59 58 56 51 49 46 49 47 51 55 56 57 59 63 65 63 67 69 65 67 72 76 79 74 71 74 69
18 30 25 21 20 22 20 22 28 28 25 20 31 36 51 56 58 62 58 55 52 51 44 42 42 43 44 47 51 53 56 58 61 64 63 66 70 72 72 75 77 78 75 74
23 25 26 24 24 22 21 24 30 37 42 46 42 50 60 62 60 59 58 54 52 43 42 41 38 41 43 43 46 48 53 58 64 68 66 67 70 72 73 72 76 79 79 76
28 32 27 22 26 25 29 33 33 39 43 44 46 55 56 57 55 52 47 44 44 43 44 44 38 42 45 44 43 48 50 61 64 66 67 67 68 70 72 73 72 76 78 80
22 28 32 28 26 30 34 31 30 34 39 39 43 43 45 45 42 45 38 37 38 37 35 36 37 41 49 46 46 52 54 55 59 63 67 68 68 71 70 71 72 73 75 75
23 32 22 36 28 33 30 28 27 28 31 35 37 40 44 41 40 36 37 36 35 36 36 38 37 41 43 50 49 55 54 55 60 64 65 67 69 70 70 72 76 74 74 73
30 33 26 30 26 26 28 29 28 35 36 37 35 39 42 40 36 39 38 40 38 40 42 41 45 47 48 50 50 60 59 58 60 60 63 67 70 73 73 76 75 74 74 74
36 33 29 36 37 32 38 31 33 42 44 39 39 40 43 41 40 40 40 42 42 43 44 45 49 52 52 54 56 61 64 62 66 69 71 72 73 66 58 74 74 75 77 78
36 34 36 36 37 49 47 44 41 39 42 41 39 36 40 40 41 41 45 44 46 48 52 51 52 56 57 58 60 66 68 68 70 72 73 72 70 68 70 74 74 66 72 69
41 40 41 49 49 47 42 40 38 36 37 37 38 39 42 43 42 45 48 49 49 51 58 59 62 62 65 63 65 67 69 70 73 75 74 72 79 71 66 57 54 57 60 59
35 41 49 52 52 48 44 41 39 40 39 40 40 45 49 52 54 55 56 58 58 63 64 64 67 67 69 68 69 66 68 71 74 74 70 68 62 64 65 67 62 60 65 64
38 48 38 34 48 49 48 44 42 46 51 56 60 61 59 62 65 65 66 67 69 68 68 71 71 72 71 69 70 74 73 81 85 84 73 68 67 67 74 70 67 86 96 95
Wind_Speed
4 3 4 1 3 1 2 3 8 4 5 6 10 12 6 10 13 13 13 14 14 16 11 12 15 15 15 14 14 14 13 12 10 8 7 7 8 5 6 5 6 8 9 9
3 8 2 2 4 5 3 5 3 7 3 6 4 9 4 9 13 16 16 16 15 11 10 13 15 16 16 16 16 15 15 13 11 9 7 5 4 5 3 5 6 9 10 10
4 2 2 2 4 5 5 4 3 6 5 1 4 1 4 1 9 11 14 14 14 14 15 14 15 16 15 16 17 15 15 14 12 13 7 5 4 4 4 6 7 7 9 10
4 2 3 2 3 3 4 2 2 2 3 2 5 3 2 7 5 6 10 12 12 13 15 12 14 15 16 16 15 15 15 15 14 15 11 12 9 8 5 4 4 6 10 10
3 4 2 5 2 6 1 2 1 1 3 3 2 4 2 7 5 7 6 4 11 14 15 15 16 15 14 13 13 13 14 14 13 13 12 11 11 8 6 5 6 7 8 9
5 0 4 3 2 4 6 2 3 2 1 4 2 4 2 5 7 11 14 13 9 12 12 12 11 12 13 13 13 13 14 13 14 14 14 13 12 10 8 8 6 6 6 7
1 4 2 4 4 4 3 3 3 3 3 2 1 4 4 7 8 10 13 11 3 6 9 9 11 10 10 12 11 12 14 13 14 14 14 15 13 10 10 10 7 7 6 7
2 5 2 4 5 2 3 4 4 3 2 3 2 3 3 5 5 6 5 5 7 7 8 8 7 5 7 7 10 12 13 13 14 14 14 13 11 7 7 9 7 8 8 9
4 2 1 1 2 2 6 4 3 6 1 3 2 1 3 1 6 8 9 10 10 10 10 10 7 6 4 5 9 11 9 8 10 11 10 8 9 9 7 6 7 7 9 9
2 2 2 4 3 10 1 8 4 1 4 3 2 4 2 4 6 8 9 10 9 10 9 7 6 5 3 2 3 4 6 7 8 8 7 6 5 5 3 4 8 9 10 11
5 2 3 3 6 2 3 4 5 2 2 2 5 4 3 8 7 8 8 9 10 10 10 9 8 9 9 9 8 6 6 5 4 5 5 6 6 5 4 7 8 9 9 10
2 2 2 4 2 1 2 3 1 4 5 0 3 3 1 7 8 8 8 10 10 10 10 9 10 10 10 8 7 6 6 5 6 6 4 3 4 4 6 7 9 9 10 6
7 1 4 4 4 3 3 3 3 2 2 6 4 3 4 7 10 9 10 9 8 7 8 8 9 8 9 10 8 5 5 5 5 4 2 3 3 4 5 6 8 9 10 11
3 4 3 2 2 2 2 2 2 3 4 1 5 2 8 10 13 12 10 8 7 5 5 6 6 6 6 6 7 7 5 2 3 4 1 3 4 4 5 4 6 7 7 9
1 3 1 1 2 2 0 4 3 6 5 7 3 6 11 14 14 13 10 8 6 4 5 5 5 5 5 6 5 4 3 2 1 3 5 5 4 5 5 6 7 7 7 6
1 4 2 3 3 1 4 5 4 5 4 9 6 5 4 11 11 11 10 7 4 2 1 1 2 2 3 3 4 5 5 4 3 4 7 7 6 6 6 7 8 8 8 8
3 7 4 3 1 2 7 4 5 2 3 3 5 2 11 12 13 13 10 8 7 6 5 4 3 3 4 5 6 7 8 9 10 10 10 8 8 8 8 8 8 9 8 8
5 5 1 2 2 6 4 4 2 2 1 3 3 10 12 12 9 9 8 11 10 9 8 7 6 6 7 7 7 7 7 8 9 11 11 11 10 8 7 8 9 10 9 9
1 4 4 3 4 3 5 7 5 4 2 3 7 9 10 10 9 7 9 9 9 8 6 6 5 6 6 8 9 7 9 10 11 12 12 12 10 9 8 8 10 10 9 10
5 3 5 4 4 5 2 5 3 4 5 9 7 11 13 9 7 3 11 9 8 7 7 8 9 8 9 11 10 10 12 13 14 14 12 12 11 9 9 10 9 10 11 12
3 2 8 5 5 1 2 3 5 5 4 9 7 8 9 6 3 3 2 6 7 8 10 11 9 9 10 11 11 12 14 15 15 14 14 12 12 11 10 10 9 10 11 12
3 5 3 3 4 7 2 5 4 4 4 6 5 4 5 6 7 7 8 8 9 11 10 9 9 9 10 11 11 14 14 15 14 15 15 14 12 9 10 11 10 12 12 12
3 3 1 4 2 2 2 2 4 3 7 4 2 1 3 6 9 9 9 10 10 10 9 10 10 11 12 12 12 14 14 14 15 16 15 14 13 12 11 11 12 11 12 11
2 2 1 4 3 4 5 5 4 4 6 4 3 4 5 9 11 11 11 11 11 11 11 9 12 14 14 13 13 13 13 14 14 15 15 13 10 12 13 12 11 11 11 11
2 6 5 2 2 2 3 2 4 5 5 7 7 7 8 9 11 13 13 14 13 11 11 12 13 14 15 13 12 13 13 12 12 13 13 13 12 13 13 13 12 11 12 12
5 5 4 1 7 2 4 4 5 7 8 8 9 11 11 10 12 13 12 11 12 13 14 13 14 14 13 13 13 12 13 9 10 11 10 9 10 11 10 12 12 12 17 17
Wind_Direction
43 252 249 203 107 160 141 275 299 254 256 223 219 260 252 186 198 197 201 206 207 211 203 200 199 194 192 190 197 203 199 206 195 195 199 219 226 218 234 238 245 246 241 244
175 239 209 190 134 214 211 244 293 292 348 222 174 248 314 191 219 209 200 209 213 208 199 198 193 193 194 192 199 201 203 196 196 195 201 214 195 220 200 220 222 238 248 241
193 101 135 226 207 234 203 272 252 268 349 6 312 251 31 72 237 213 216 222 215 206 208 198 193 194 193 197 200 199 202 197 198 201 194 190 202 222 210 215 234 224 235 240
236 153 206 147 311 219 268 257 225 249 241 274 339 314 290 344 315 209 229 228 222 210 211 201 197 196 197 202 200 200 199 198 200 193 199 204 211 221 227 231 230 236 222 229
118 188 175 321 197 190 22 84 43 130 154 240 58 258 80 0 2 27 4 300 243 218 204 201 198 196 198 196 198 201 198 198 200 197 210 206 221 230 233 233 234 234 230 221
255 141 237 228 143 193 138 113 76 97 152 235 20 280 94 7 326 323 330 329 285 211 200 200 190 181 191 192 192 191 197 201 198 199 202 215 225 224 231 228 224 246 243 221
272 193 228 206 186 126 174 215 260 194 175 73 301 245 13 339 340 330 331 342 39 173 171 170 170 180 193 197 201 192 193 202 201 201 205 209 217 228 243 253 251 241 243 240
282 194 196 155 232 191 174 252 261 296 179 110 166 232 71 346 9 11 22 46 85 110 122 139 159 171 203 216 210 203 196 198 200 200 203 202 199 207 218 230 240 260 261 265
186 234 286 245 159 229 148 196 52 117 62 218 10 230 206 100 59 60 60 74 79 84 92 98 100 123 174 206 224 227 208 205 213 211 190 186 192 189 216 242 222 246 255 259
177 245 56 116 160 60 297 130 183 162 179 168 163 277 250 172 102 88 81 81 84 89 93 83 66 61 34 281 275 226 193 194 207 208 184 196 181 213 263 266 266 254 257 258
162 234 119 244 26 35 155 146 72 101 301 196 166 226 201 167 143 118 102 91 95 92 85 74 57 43 44 52 63 85 117 153 175 197 143 163 187 182 244 267 249 251 254 249
167 152 94 72 73 334 29 83 291 268 178 11 302 185 344 186 156 140 122 110 98 92 89 82 71 62 68 73 90 86 80 100 101 103 160 157 160 211 256 267 263 240 242 229
171 59 130 147 172 139 55 57 91 77 314 191 237 162 145 153 151 154 140 130 114 95 88 86 78 72 64 68 79 112 147 174 180 207 312 334 286 274 259 269 281 281 276 256
69 101 276 271 77 90 170 156 89 290 268 133 249 176 190 182 170 162 152 144 123 107 89 74 68 47 48 51 54 53 64 63 316 305 275 242 250 279 281 295 293 291 282 268
55 113 115 91 113 149 13 282 261 249 265 247 303 231 192 188 174 165 153 145 136 109 78 49 41 31 25 15 11 4 330 313 270 269 266 277 289 277 264 276 289 297 297 292
57 127 169 208 161 82 270 237 272 245 237 251 265 239 198 166 156 163 161 154 147 126 93 72 66 61 38 329 308 300 287 287 282 297 299 302 300 298 277 273 275 275 287 293
155 149 170 254 30 290 256 278 261 212 229 272 228 120 153 159 172 168 169 179 182 180 175 186 222 278 308 315 321 319 330 330 325 320 313 308 308 304 302 306 295 280 279 291
148 128 160 264 201 248 64 60 218 169 222 238 144 148 158 156 159 178 189 179 179 189 207 230 253 260 260 262 268 270 272 275 283 282 285 290 289 281 286 301 300 292 288 283
22 145 127 235 213 352 194 215 206 225 129 166 146 138 131 133 140 171 192 196 200 215 235 248 267 283 290 294 297 292 289 290 289 286 284 280 270 275 290 292 290 289 287 284
105 89 238 160 218 229 99 156 177 184 247 169 170 155 152 161 203 183 199 219 242 256 278 287 291 292 280 281 293 292 291 287 280 278 281 279 280 265 279 286 275 278 278 273
140 137 219 189 233 252 165 156 166 221 55 153 164 168 167 198 315 36 351 259 274 292 294 295 287 282 288 296 302 299 295 286 285 288 285 275 264 267 276 269 268 269 268 274
219 193 175 148 218 241 83 143 234 68 101 127 125 141 193 249 286 297 299 289 297 304 307 302 298 296 299 300 298 290 289 294 299 294 290 281 270 271 279 272 270 265 257 260
215 306 338 257 43 9 322 9 114 114 125 130 147 143 297 288 293 301 292 295 302 305 304 300 297 297 295 294 294 291 294 299 297 295 290 285 287 283 278 275 275 268 253 256
155 174 136 194 138 115 107 114 102 85 81 65 25 340 322 308 307 304 302 299 301 303 300 303 300 298 298 299 296 293 296 295 293 290 291 289 281 282 283 282 274 268 264 259
52 166 141 101 185 222 203 138 91 91 64 20 3 350 334 329 315 314 308 306 307 306 303 304 298 296 296 298 298 298 297 295 295 293 290 288 285 285 285 277 276 272 263 259
188 155 201 170 162 100 105 101 51 45 24 19 357 339 335 331 320 317 308 311 307 308 306 301 300 298 295 295 297 296 294 298 291 291 293 293 295 288 284 282 280 246 243 259